Wind_Gust
13 13 13 13 12 13 15 19 18 19 21 21 19 19 20 21 19 18 17 17 17 15 11 13 17 13 18 15 15 16 14 14 12 12 11 9 8 7 7 6 6 7 6 6 6 8 9 10 11 11 12 12 12 10 9 9 9 9 9 8 8 10
14 14 14 15 13 12 14 15 11 12 13 16 17 17 17 13 14 11 17 17 12 14 11 12 11 14 11 14 15 17 15 14 13 12 11 10 8 7 7 6 5 6 6 6 6 4 5 9 11 12 12 12 10 8 8 9 9 9 8 6 8 12
15 15 15 12 13 13 14 11 11 11 11 13 13 13 10 12 9 11 11 11 12 11 13 11 11 13 11 15 15 17 16 15 14 13 12 10 9 7 6 6 5 5 6 6 3 5 5 4 6 12 11 9 7 8 9 10 10 9 8 7 6 13
17 16 15 14 13 13 13 12 11 11 9 10 10 11 10 10 11 10 12 11 11 13 13 12 15 22 19 14 14 17 17 16 15 13 12 8 8 7 6 5 4 6 5 5 3 6 6 5 6 7 8 8 7 7 9 9 10 10 8 8 8 14
15 15 14 15 14 14 13 13 12 11 10 10 9 10 10 10 10 12 10 11 12 12 14 13 12 12 11 12 10 9 10 8 7 6 10 5 4 4 4 4 4 5 5 6 7 7 5 6 5 7 8 8 8 7 9 9 9 8 7 7 9 13
16 14 14 14 15 16 17 14 13 12 13 11 11 12 11 11 11 12 10 13 12 13 14 14 11 12 12 13 12 9 10 8 7 7 7 8 7 5 5 7 5 7 8 8 8 7 6 6 8 6 7 10 8 8 10 9 10 9 8 8 11 14
15 16 14 14 14 15 16 15 14 14 15 13 12 12 14 12 12 13 12 13 11 11 12 13 13 13 13 15 14 12 11 10 10 9 8 9 7 6 8 8 9 9 10 8 8 9 6 8 9 9 8 8 9 9 10 10 9 9 8 7 9 15
18 16 14 14 15 15 15 16 16 17 17 17 15 13 13 14 11 15 13 12 11 11 11 12 13 14 13 14 15 14 13 11 11 10 10 10 9 8 8 10 9 11 10 10 11 10 9 9 10 9 10 9 9 10 10 10 10 9 8 8 9 14
22 20 17 16 16 16 16 15 15 16 16 15 16 15 13 14 11 14 14 14 12 12 10 11 13 14 13 15 14 14 13 13 11 11 11 10 10 10 10 11 11 12 11 10 9 10 8 12 11 9 11 10 11 11 10 10 10 9 8 8 8 14
25 25 21 18 16 18 19 15 18 17 15 17 16 16 12 13 11 16 14 13 15 12 12 12 13 12 14 15 15 14 14 13 13 11 11 12 11 11 12 11 11 10 13 11 11 8 11 16 13 10 11 12 11 11 10 11 10 10 8 9 9 12
23 22 22 20 18 18 19 15 18 17 15 17 17 17 14 13 12 15 15 15 14 14 12 11 13 12 13 15 14 13 14 13 12 11 12 13 11 13 12 12 12 14 12 15 7 12 17 15 13 13 11 12 12 11 11 10 10 10 10 8 8 8
23 24 22 21 19 19 19 16 18 18 16 17 16 16 15 14 13 15 14 14 14 14 12 11 12 13 14 13 14 14 13 13 13 12 13 13 14 13 13 14 14 13 12 4 11 10 12 16 13 13 13 12 11 12 11 11 11 10 9 8 8 7
21 21 21 22 21 19 19 17 18 18 16 17 16 15 16 15 15 14 15 15 15 14 13 13 12 14 14 14 13 13 12 13 15 13 14 15 16 14 12 10 13 4 10 9 13 11 8 9 14 13 13 12 11 11 11 11 11 10 11 11 9 9
21 22 20 19 19 18 18 18 17 17 16 18 16 15 15 14 14 15 16 15 15 15 13 14 13 13 14 13 14 14 13 14 14 12 15 14 15 12 12 13 5 10 10 11 12 12 12 10 8 11 12 13 11 12 12 11 10 11 11 11 11 10
20 21 21 20 20 19 17 18 17 18 17 17 16 16 15 14 14 15 17 16 16 15 15 14 13 15 13 13 14 13 14 15 14 12 14 14 14 11 12 10 10 11 10 9 10 9 12 13 14 13 11 11 12 12 10 11 10 10 11 11 11 11
22 22 22 21 19 19 19 18 17 16 18 17 17 16 15 15 15 15 17 17 16 16 15 14 13 13 13 12 12 12 13 13 14 12 13 11 11 11 11 10 8 13 13 9 11 8 8 11 12 12 10 10 10 11 11 10 11 10 11 13 12 11
28 26 24 20 18 16 17 17 17 18 18 18 18 16 13 13 15 16 17 17 17 17 16 15 13 13 12 12 11 12 11 12 11 11 10 11 12 11 9 11 7 5 13 12 11 10 8 9 11 10 10 9 9 10 10 10 11 9 11 16 14 13
29 26 24 24 19 16 16 16 17 17 16 19 18 16 13 13 15 16 17 18 17 17 16 14 12 12 12 12 11 12 11 12 10 10 10 9 10 7 9 11 10 3 7 13 10 12 10 9 9 10 9 9 8 9 9 9 8 9 12 14 14 14
28 26 24 22 18 15 13 13 13 16 17 18 18 16 14 15 16 16 17 17 17 16 15 13 12 11 12 11 12 12 12 10 11 11 11 9 8 8 8 8 9 6 4 5 12 11 13 12 10 8 9 8 6 7 7 6 7 11 11 14 16 15
28 28 22 20 18 17 14 15 16 12 16 18 17 17 14 16 15 17 17 17 17 16 14 14 12 12 12 11 12 12 12 11 12 12 12 11 9 10 10 9 8 9 8 5 4 7 9 11 7 6 5 2 2 4 6 6 7 11 11 12 14 14
31 28 25 24 24 24 24 17 15 19 21 18 19 17 16 14 15 16 16 16 17 17 15 14 14 13 13 13 12 12 12 11 12 13 13 14 12 10 9 10 10 6 10 7 5 6 9 11 13 6 5 2 2 2 2 3 5 7 11 13 12 15
29 31 29 29 29 27 26 28 26 25 22 19 18 20 19 14 14 15 15 17 17 16 17 16 15 14 14 14 12 13 13 14 14 14 12 12 14 11 9 9 10 9 5 10 12 10 12 14 6 15 14 6 3 5 2 3 2 2 6 9 12 13
30 32 31 29 26 27 23 21 22 20 20 19 16 16 16 14 13 16 15 18 17 17 18 17 16 16 17 16 15 13 15 15 14 14 12 13 16 14 14 13 12 13 11 5 5 8 13 10 14 7 6 10 8 10 9 6 6 4 4 7 7 10
29 31 31 29 30 28 22 17 12 11 12 15 17 14 14 12 15 15 18 19 18 19 19 19 18 17 17 17 16 15 14 14 15 14 15 15 17 17 15 13 12 10 13 11 10 11 10 8 10 20 13 9 9 8 6 15 13 10 7 7 10 9
31 30 29 30 31 24 19 14 12 8 9 12 8 14 15 16 19 19 18 19 21 19 20 20 19 19 19 18 17 16 14 15 15 14 14 15 17 19 17 16 15 14 15 16 13 12 11 9 8 11 17 14 6 7 14 7 7 14 6 6 8 9
24 26 28 28 28 24 25 26 21 20 20 22 22 23 27 29 24 23 24 17 18 21 20 19 19 20 20 18 19 17 15 16 16 16 15 16 15 16 15 15 17 16 16 12 18 12 16 10 9 11 8 9 15 16 12 8 10 19 6 7 7 10
29 26 25 24 25 25 23 23 26 30 28 28 28 28 24 19 20 17 14 18 19 18 20 21 19 20 19 19 18 18 17 17 16 16 15 15 16 18 18 18 15 15 16 14 12 16 17 19 8 11 10 9 5 2 11 13 15 5 6 8 7 10
27 27 26 26 27 27 27 26 26 24 25 25 28 29 23 21 15 15 16 18 19 19 20 20 21 20 21 20 19 19 19 17 18 17 17 18 18 17 16 15 17 17 14 15 17 18 17 16 23 21 13 12 10 4 8 6 7 14 11 13 14 6
29 27 26 27 29 29 27 28 29 28 25 25 24 19 16 15 16 17 18 16 19 20 20 20 21 21 21 21 20 20 19 19 18 18 17 17 16 17 19 18 18 17 16 15 16 14 16 19 18 18 15 14 10 11 8 9 7 8 9 9 9 13
27 26 26 27 30 29 27 26 24 23 26 25 21 17 18 19 17 16 20 19 18 20 21 21 20 20 21 22 21 21 21 21 20 18 18 18 16 17 18 19 20 19 17 17 15 14 18 16 18 15 15 16 16 12 8 10 8 9 5 9 12 14
32 29 26 29 28 29 27 25 27 27 28 26 23 20 20 21 20 17 22 21 21 21 20 22 20 20 21 21 22 21 22 21 19 18 18 18 19 19 19 19 19 18 18 19 17 16 13 13 16 16 15 15 18 19 21 20 14 12 10 8 7 9
30 27 26 27 28 30 29 28 26 27 28 27 24 24 26 26 26 25 24 22 19 17 20 21 21 21 22 21 22 22 21 20 21 19 20 19 18 18 17 17 18 20 19 18 17 17 16 15 16 17 17 16 16 15 13 14 13 12 13 11 12 11
29 28 28 27 28 28 27 28 29 28 26 26 25 25 26 25 23 25 24 22 20 23 21 22 25 26 24 23 23 22 23 23 22 21 20 18 18 18 18 17 18 18 19 19 20 19 19 18 19 20 21 18 15 14 17 13 10 12 11 11 11 12
31 30 28 28 31 30 29 29 28 29 28 27 26 27 25 26 25 24 23 24 25 25 25 28 27 27 26 24 23 22 21 21 20 18 19 19 18 18 18 18 18 19 19 20 17 19 20 17 17 18 16 16 16 17 16 12 13 11 12 12 11 13
31 29 28 29 29 31 32 30 28 28 27 25 27 27 27 25 25 24 23 24 24 23 25 25 27 25 21 24 23 21 21 21 20 20 19 19 19 18 18 18 18 19 19 17 18 19 18 17 19 17 15 17 18 16 16 14 13 14 12 15 14 13
35 34 33 31 30 33 31 31 29 28 28 27 25 25 24 22 22 23 24 24 25 25 26 23 20 19 22 23 23 22 21 22 20 20 21 20 20 19 18 20 18 18 20 17 18 18 18 17 19 18 18 15 14 17 16 14 14 14 13 13 13 11
32 32 34 35 36 33 32 30 30 30 28 26 26 25 27 24 26 25 24 24 24 25 22 21 20 20 22 22 23 23 22 22 22 21 21 21 21 19 19 20 20 19 21 17 18 20 18 18 18 16 16 16 18 17 15 13 12 12 11 10 11 12
Wind_Speed
7 7 8 8 7 7 9 13 12 14 16 16 14 13 12 14 15 14 12 12 12 7 5 6 9 6 11 6 8 9 9 9 9 9 8 7 5 4 4 3 3 4 4 3 4 6 7 8 9 9 9 9 9 6 5 6 5 5 4 4 4 4
7 7 7 7 6 6 7 10 6 7 7 11 12 12 10 6 9 5 11 9 5 4 4 4 5 9 5 6 6 10 9 9 9 9 8 7 6 4 4 3 3 3 4 4 3 3 3 6 9 9 9 9 6 5 5 5 5 5 4 4 4 7
7 7 8 7 6 6 7 6 6 6 6 9 8 8 5 7 4 4 4 4 4 3 4 4 5 6 4 9 7 10 10 9 10 10 9 8 6 5 4 4 3 3 3 4 1 2 3 2 3 8 8 5 5 5 6 5 5 5 5 4 3 9
8 8 7 6 6 6 6 6 6 6 5 5 5 5 5 5 5 4 3 4 4 4 3 5 8 14 11 6 7 10 10 10 10 9 9 6 6 5 4 3 3 3 2 1 1 1 2 1 2 3 4 5 5 5 6 5 5 5 5 4 4 11
7 7 7 6 7 6 6 6 5 6 5 5 5 5 5 5 5 4 5 4 4 4 4 5 4 4 4 5 3 3 4 3 3 3 7 3 3 2 2 2 2 1 1 1 1 1 2 2 2 2 4 4 4 5 5 5 5 4 4 4 4 11
6 5 5 6 7 7 8 6 6 6 6 5 5 5 5 5 5 5 5 5 5 5 5 5 3 3 4 5 4 4 4 3 3 3 3 4 3 3 3 3 3 2 2 2 2 1 2 3 4 3 3 4 4 5 5 5 5 4 4 4 5 11
8 6 5 5 5 6 7 6 7 6 7 6 5 6 6 5 5 5 6 6 6 6 6 5 4 4 5 4 4 5 4 4 5 5 4 4 4 3 4 5 3 3 2 2 3 2 3 3 4 5 3 4 4 5 5 5 5 4 4 4 6 12
10 9 8 7 6 6 6 7 7 8 8 7 7 6 6 6 5 6 6 6 6 6 6 6 5 5 5 4 5 5 5 5 5 5 4 4 4 4 5 4 3 3 3 3 3 3 3 3 4 5 5 4 4 5 5 5 5 4 4 5 4 9
14 13 9 8 7 6 5 6 7 8 8 8 7 6 6 6 6 5 6 7 6 6 6 6 6 5 5 6 5 5 5 6 5 6 4 4 4 5 5 5 5 4 3 3 3 3 3 3 4 4 6 5 5 5 5 5 5 5 4 4 5 7
15 14 12 10 8 7 6 7 7 7 7 8 7 6 6 6 5 6 6 7 7 7 7 7 6 6 7 6 6 5 5 6 6 6 5 5 5 5 6 5 5 5 4 4 3 5 5 5 5 5 5 6 5 6 5 6 6 5 5 4 4 5
13 13 12 12 10 9 8 7 7 7 7 8 8 7 6 6 6 6 7 7 7 7 7 6 7 7 6 7 7 6 6 6 6 6 5 6 5 6 5 5 6 6 6 2 5 6 6 6 6 5 5 6 6 5 5 5 5 5 5 4 4 4
13 11 11 12 11 11 10 9 8 8 7 8 8 7 7 6 7 7 7 7 7 7 7 6 7 7 8 7 7 7 6 6 7 6 6 6 6 6 5 6 6 5 2 2 5 6 6 7 7 6 6 6 6 5 5 5 6 5 5 4 4 4
12 12 12 12 11 10 10 9 8 8 8 8 8 7 7 7 7 7 7 8 8 8 7 7 7 8 8 8 8 7 6 7 7 6 5 6 6 6 5 5 5 2 3 2 3 3 4 5 6 6 6 6 6 5 5 5 6 5 5 5 4 5
11 13 13 11 10 9 10 9 8 8 8 8 8 8 8 7 7 7 7 9 8 8 7 7 7 7 8 7 8 8 8 8 7 7 6 5 6 5 6 5 3 3 3 4 4 4 5 5 5 5 5 6 5 6 5 6 6 6 5 5 5 5
12 13 13 12 12 11 10 9 9 8 8 8 8 8 8 7 7 8 7 8 9 8 8 8 8 8 7 8 8 8 8 8 8 7 6 6 7 6 5 6 4 3 3 3 4 4 5 6 7 7 5 5 6 5 5 6 6 5 6 5 5 4
12 13 14 13 12 11 11 10 9 8 8 9 8 8 8 8 8 8 8 8 10 9 8 9 8 8 7 7 7 7 7 7 8 6 6 6 6 6 5 3 4 6 6 4 5 4 3 5 5 5 5 5 5 6 6 5 6 6 5 5 5 5
14 15 15 13 11 10 10 10 9 9 10 9 8 8 7 7 8 8 9 9 10 10 9 9 8 8 7 7 6 7 7 7 6 6 6 6 7 6 5 4 4 3 8 6 6 5 4 4 5 5 5 5 6 6 6 6 6 5 5 6 5 5
14 14 12 12 11 9 9 9 9 8 9 10 10 8 7 7 8 8 9 10 10 10 9 9 7 7 7 7 7 7 6 7 6 5 6 5 6 4 5 6 5 1 4 7 5 7 6 5 5 5 5 5 5 5 6 5 5 5 6 6 6 7
12 12 11 11 9 8 7 7 7 9 9 10 9 9 8 8 8 8 9 10 10 9 9 8 7 7 7 6 6 7 7 7 6 5 5 5 4 3 5 3 6 4 1 3 7 6 7 7 6 5 5 5 3 4 4 3 4 5 6 7 7 7
13 13 10 8 8 7 7 8 8 7 8 9 9 9 8 8 8 9 9 10 10 9 8 8 8 7 7 7 7 7 7 6 6 6 6 6 5 5 6 5 4 5 5 2 2 4 4 5 4 3 2 1 2 3 4 4 4 6 6 6 7 6
14 11 10 10 10 10 10 8 8 10 11 9 9 9 8 7 8 8 10 10 10 9 9 8 8 8 8 7 7 7 7 7 6 6 7 8 7 6 5 6 6 3 6 4 2 3 4 6 7 2 2 1 0 0 1 2 4 4 6 7 6 7
13 18 14 13 13 12 12 12 11 11 10 9 9 10 9 8 8 7 9 9 9 9 10 9 9 8 8 8 7 7 7 8 7 7 7 7 6 6 5 4 5 4 1 4 4 6 6 7 2 6 5 1 0 1 0 0 1 2 4 6 7 7
9 11 14 15 12 13 12 10 10 8 10 7 7 8 8 8 7 8 9 9 9 10 10 10 9 9 9 9 8 8 8 7 8 7 7 7 7 7 7 7 7 7 4 0 1 4 8 6 6 3 3 5 2 3 3 2 1 2 2 4 5 6
12 17 16 16 16 16 14 10 6 5 7 8 7 6 7 7 9 9 10 10 9 10 11 10 10 10 9 9 9 9 8 8 8 7 8 8 7 8 7 6 6 6 6 5 3 5 5 5 5 9 4 3 3 3 2 7 6 3 2 5 6 5
13 13 14 17 18 13 10 7 6 5 5 4 3 7 7 8 10 10 9 10 11 11 12 11 11 11 10 10 9 8 8 9 8 8 8 8 9 9 8 8 8 7 8 7 7 4 5 5 5 6 8 5 2 0 5 2 3 6 2 3 4 6
12 11 12 15 17 13 13 13 11 9 10 10 10 10 13 15 12 12 12 9 9 11 11 11 11 11 12 10 10 10 8 9 9 9 8 8 8 7 7 8 9 9 9 6 9 6 7 5 5 6 4 2 6 6 5 3 4 5 2 4 3 5
16 14 12 11 13 13 13 12 15 17 15 15 14 12 12 10 10 8 7 10 11 10 12 12 11 11 11 11 10 10 10 9 9 9 8 8 8 9 9 9 7 8 9 7 6 8 10 9 3 6 5 4 1 0 6 6 6 2 1 2 3 5
13 14 13 12 13 14 14 14 15 15 13 14 15 15 13 11 8 8 9 10 10 10 11 11 12 12 12 12 11 11 11 9 9 9 9 9 10 9 7 7 8 9 8 8 9 9 9 8 11 8 7 6 4 1 3 3 4 7 4 4 5 2
17 15 13 15 15 16 15 15 16 14 14 13 13 10 7 7 8 9 10 9 11 11 11 11 12 12 12 12 12 12 11 11 10 10 9 9 9 9 10 10 9 8 9 8 8 8 8 10 9 8 7 7 4 4 3 3 2 4 3 3 3 5
17 14 13 16 17 18 17 15 13 13 16 14 11 9 7 9 9 9 11 11 10 10 11 11 11 12 13 13 13 12 12 13 12 10 9 10 10 10 10 10 11 11 10 10 8 8 9 8 9 7 8 8 8 5 2 3 2 4 1 3 5 5
20 16 15 17 18 19 17 15 15 16 18 16 14 12 10 11 10 10 12 12 11 11 11 12 11 11 12 13 13 13 12 12 11 10 10 10 10 10 10 10 10 10 10 11 9 9 8 7 8 8 8 8 9 10 10 9 7 6 5 3 2 4
20 18 16 16 17 17 16 16 16 17 18 16 15 12 15 15 15 15 14 12 10 9 10 11 11 11 12 13 12 12 12 12 11 11 11 10 10 10 9 9 9 9 9 10 9 9 8 8 9 8 9 8 8 8 8 7 6 7 7 6 7 6
19 18 17 17 17 18 16 16 17 17 17 15 14 15 15 15 14 13 12 12 11 12 11 11 13 14 14 15 12 12 13 12 12 12 11 10 10 10 9 9 9 10 10 10 10 10 9 10 10 10 10 9 8 8 9 7 6 7 6 5 6 6
20 18 16 17 18 18 18 18 17 17 16 15 15 16 14 14 14 13 12 13 14 13 13 15 14 15 14 14 12 13 12 12 12 11 11 11 11 10 10 10 10 11 11 10 9 11 11 10 9 10 8 8 9 9 9 7 7 6 7 6 6 7
19 18 18 19 18 20 19 19 17 16 15 14 15 14 14 13 13 13 12 13 13 12 13 13 14 13 12 14 14 12 13 13 12 12 11 11 11 10 10 10 9 11 10 9 10 11 10 10 10 10 9 9 9 9 9 8 7 8 7 8 7 6
19 20 20 20 18 20 19 17 18 18 17 16 14 13 12 11 11 13 13 13 14 14 14 12 11 11 13 14 14 13 13 13 12 12 12 12 12 11 11 11 10 10 11 8 10 12 10 10 11 11 11 9 8 10 9 8 8 8 7 7 7 6
18 17 20 22 22 20 19 19 19 19 17 16 16 15 15 15 16 15 14 13 13 14 13 11 11 11 12 13 13 13 13 13 13 12 12 12 12 11 11 11 11 11 12 10 10 11 10 10 11 10 9 10 10 9 8 7 7 7 7 6 7 7
Wind_Direction
150 153 147 141 144 146 163 160 159 157 160 161 159 158 156 157 159 161 163 167 162 163 160 161 156 149 163 163 169 168 166 159 154 151 150 149 148 155 152 153 142 130 130 141 136 124 124 122 120 116 112 105 91 81 94 100 102 103 102 106 114 128
150 155 149 142 146 154 158 161 151 156 153 161 163 163 164 156 161 163 167 170 161 157 153 144 151 156 157 166 175 179 174 169 165 160 154 157 155 160 168 173 163 156 146 154 169 103 114 129 132 121 115 105 91 95 101 107 107 109 109 112 119 133
156 159 152 149 151 153 156 150 154 148 155 159 163 159 147 159 152 163 170 157 161 147 151 150 160 162 154 173 183 183 181 179 174 168 163 160 163 174 181 193 194 187 168 173 159 108 98 102 128 119 102 95 96 97 109 110 109 113 120 124 125 137
165 164 158 154 152 152 154 153 153 148 148 149 154 142 144 144 151 164 151 148 151 150 149 148 173 173 171 175 189 186 188 187 183 177 173 166 174 182 193 212 220 207 171 172 173 117 108 104 81 90 107 111 101 103 115 119 122 125 127 129 138 138
166 168 160 158 158 157 153 154 152 150 147 150 148 145 149 150 156 153 146 150 155 159 153 166 180 176 161 171 195 186 197 201 199 190 178 153 168 197 184 232 263 270 165 192 221 157 112 128 111 103 114 113 106 107 118 119 123 124 125 127 139 139
167 173 168 166 164 162 160 161 156 156 153 158 155 156 158 162 163 157 154 157 159 160 164 177 184 177 168 174 185 190 196 200 200 204 175 180 180 195 223 228 225 225 224 159 235 152 171 155 142 128 132 127 117 119 126 124 125 125 123 130 143 140
165 174 181 176 170 174 168 164 159 160 160 170 163 162 170 172 174 166 164 164 162 167 172 178 187 179 178 178 184 191 196 200 200 208 202 182 197 200 213 225 228 226 217 175 215 211 179 175 157 136 147 139 128 131 134 133 131 129 132 133 146 144
169 175 180 183 181 187 172 167 168 170 173 174 168 173 176 180 175 177 175 172 168 169 174 179 187 181 186 178 191 195 199 204 206 214 208 191 197 212 219 226 230 235 201 204 197 209 184 184 158 146 147 149 136 132 134 134 134 133 136 144 146 151
169 175 178 176 186 188 179 177 175 178 174 175 174 177 178 175 180 182 185 180 175 174 178 181 183 181 177 188 194 198 200 209 212 218 205 209 201 211 223 223 232 235 205 206 198 193 184 181 159 156 151 155 145 139 139 139 139 139 143 147 148 156
169 173 174 174 183 181 186 190 187 184 175 174 178 178 174 180 188 184 190 189 185 179 179 182 180 177 175 186 196 202 207 213 214 219 205 208 213 211 217 221 238 239 224 209 175 193 190 177 172 168 164 153 152 150 151 146 147 150 151 149 155 155
173 174 173 176 176 180 181 193 193 188 179 180 178 178 178 181 185 193 194 192 190 185 179 180 180 174 184 182 191 200 210 212 224 221 210 213 207 215 215 215 220 230 229 194 192 195 191 180 174 170 168 155 153 150 153 149 147 148 148 150 150 149
173 175 180 179 175 176 180 190 192 190 187 184 179 182 182 181 187 195 194 194 193 187 183 186 179 178 183 182 190 201 207 208 222 221 212 214 210 218 214 221 227 233 236 166 204 202 197 174 171 164 158 156 149 156 160 155 151 151 146 145 149 148
175 177 185 186 180 177 178 185 190 191 190 185 184 183 187 185 188 191 192 196 196 189 188 187 189 181 183 183 189 199 203 214 220 216 209 216 217 218 224 230 245 255 213 154 159 158 148 153 154 156 156 152 150 164 165 156 152 148 153 149 148 144
181 182 187 190 185 178 178 183 189 190 192 188 185 184 189 186 189 189 187 194 199 193 190 191 186 188 178 179 187 195 201 214 221 217 208 210 220 217 224 222 224 192 202 174 175 158 137 137 131 133 150 144 157 173 168 160 157 158 150 153 150 149
186 186 187 190 187 183 177 181 187 190 191 192 188 187 185 185 188 190 184 190 199 197 190 190 187 183 181 179 181 192 203 215 214 211 202 208 213 217 217 225 161 166 146 157 155 160 157 151 150 157 153 151 172 178 176 162 156 155 156 153 151 158
185 186 189 189 188 182 179 180 186 190 191 191 192 191 185 186 184 186 187 186 194 198 190 190 184 181 180 188 189 193 201 214 220 197 201 211 211 210 204 169 185 157 144 155 151 147 133 145 150 154 152 163 174 181 178 167 165 157 159 151 162 163
188 191 189 189 185 183 180 180 183 191 192 191 193 195 188 180 181 183 187 186 187 190 191 189 181 177 177 188 197 198 203 209 203 179 179 193 200 201 164 159 176 197 153 156 161 149 139 147 152 160 164 171 176 178 184 182 175 162 151 164 169 168
193 190 188 187 184 180 182 180 184 187 191 194 194 193 185 175 181 184 182 185 183 185 187 187 183 173 177 189 193 195 202 208 198 169 163 173 192 168 153 152 151 185 164 139 156 156 156 155 153 156 169 178 180 180 188 189 179 161 165 172 176 179
183 190 190 187 184 177 175 178 180 184 190 195 196 191 177 179 179 177 181 179 180 183 186 184 184 176 173 188 192 194 193 205 195 171 162 172 172 154 139 146 147 135 127 156 158 170 165 158 157 153 165 181 181 189 193 199 179 178 182 183 183 182
182 186 184 179 175 179 175 176 176 184 190 194 194 190 180 181 176 178 180 176 181 182 185 185 187 182 175 183 190 191 192 197 196 169 171 179 185 173 165 144 144 142 139 109 94 142 140 132 96 100 125 135 187 189 216 220 203 195 188 182 185 169
177 181 177 179 183 185 188 181 179 186 192 189 190 188 183 182 180 180 178 180 181 185 186 186 190 184 184 186 191 187 188 199 196 181 179 191 187 183 176 162 151 144 145 139 143 147 151 134 129 80 33 45 24 205 226 197 223 194 181 183 175 176
185 171 181 185 189 189 192 190 185 189 185 182 183 189 189 185 180 180 181 182 184 185 188 189 190 191 189 189 191 187 189 198 195 191 186 185 183 172 158 156 151 132 123 155 167 166 161 127 151 164 153 176 350 327 314 356 280 221 171 172 175 178
198 179 181 186 184 193 196 193 186 180 182 182 192 189 186 179 177 180 188 187 186 186 189 192 191 192 193 195 194 187 191 196 197 186 176 181 185 176 171 170 173 164 155 100 134 176 173 179 152 128 109 105 195 189 303 332 291 267 182 170 167 181
212 186 185 186 188 196 190 185 175 148 170 172 182 183 187 177 185 182 191 190 190 188 190 193 192 192 197 198 195 192 188 193 196 189 182 181 189 194 175 175 176 176 155 163 183 193 200 183 139 137 154 177 183 123 258 245 227 264 226 175 171 196
204 212 191 184 188 183 171 155 135 111 132 134 123 178 189 201 197 192 184 194 194 188 190 193 191 193 196 198 197 194 188 193 190 191 185 186 191 200 193 180 176 171 180 174 182 180 204 205 189 193 138 118 64 132 221 233 164 260 217 212 200 185
197 214 210 192 184 172 176 176 164 161 169 186 191 190 198 201 196 196 194 185 192 190 192 193 192 194 196 196 199 197 192 190 190 189 191 192 191 195 198 185 184 178 185 193 173 168 191 219 203 216 225 181 155 170 181 203 124 246 271 231 205 189
192 194 208 204 184 178 180 182 183 187 189 189 195 205 206 201 197 196 174 182 192 193 193 191 194 194 196 196 197 198 197 196 192 192 191 187 192 196 197 197 182 184 189 178 165 179 188 193 205 248 229 242 208 209 150 128 204 90 229 267 238 208
197 195 192 188 188 187 183 186 191 194 194 197 201 205 195 197 189 181 185 182 186 194 193 193 191 196 196 194 196 198 199 199 197 196 192 195 196 195 192 197 190 194 183 182 183 186 189 183 189 207 205 228 250 138 195 119 147 175 165 173 234 270
195 197 191 185 188 192 193 190 191 194 197 206 205 201 192 185 183 185 189 183 188 191 193 195 194 193 195 193 194 198 198 201 201 200 197 200 198 193 193 186 188 193 194 193 194 196 180 193 198 200 177 225 217 221 204 218 165 141 141 168 247 202
198 196 192 189 189 195 195 191 193 198 203 204 197 191 176 188 191 187 197 191 189 189 192 193 196 196 194 194 194 195 198 200 201 200 198 201 198 196 198 194 188 191 194 195 198 194 195 194 199 197 195 189 196 206 212 243 211 191 207 175 185 208
198 194 191 192 192 195 195 191 195 199 204 202 196 188 185 193 194 192 199 197 192 192 190 193 191 197 197 194 197 196 197 199 198 198 199 200 201 198 200 199 194 190 193 196 196 197 201 199 195 199 200 192 200 197 200 201 200 192 174 176 191 250
196 194 191 191 195 197 194 195 198 201 203 204 195 192 194 197 196 196 197 196 192 185 192 191 192 194 198 197 195 199 198 197 198 198 201 201 201 201 197 198 199 197 197 199 199 199 199 195 194 201 205 202 206 206 211 211 198 180 185 199 185 207
198 194 190 189 194 196 197 198 199 202 205 202 198 198 199 202 199 198 196 193 185 193 188 189 195 196 198 195 195 197 198 198 199 200 199 198 202 199 196 196 200 202 202 197 199 198 201 205 195 195 204 206 205 206 213 209 180 183 196 179 181 204
199 192 193 192 192 194 200 201 202 203 203 199 199 200 201 202 200 200 195 194 191 190 191 196 192 197 194 193 197 200 198 201 200 197 197 198 199 200 197 197 200 203 205 204 197 199 206 207 205 210 202 201 209 212 216 199 197 183 186 174 202 207
201 195 194 195 194 197 199 201 204 206 205 201 200 201 204 201 198 198 197 197 195 191 195 199 195 195 186 193 198 197 200 201 199 197 195 196 199 199 199 199 202 206 206 202 200 199 205 203 207 208 206 207 209 213 214 204 193 205 189 195 192 195
210 198 195 194 196 198 199 201 204 204 205 202 202 205 206 204 202 199 199 199 197 194 198 194 193 184 193 193 195 197 199 203 199 198 197 196 196 198 197 199 203 204 208 200 199 201 205 202 210 205 206 206 204 215 209 203 200 202 198 196 197 189
211 215 203 196 196 195 197 201 206 205 203 202 203 203 204 203 203 201 199 200 200 202 197 189 190 190 191 196 196 196 198 200 200 200 200 199 197 198 196 200 202 204 209 202 198 203 200 203 210 204 206 203 207 212 209 202 202 200 195 190 195 193